GFSGBSN_sfc_rhum_051.txt.gz
RH
76 77 80 83 85 86 85 88 87 97 95 94 92 92 90 89 89 91 91 90 90 91 91 90 86 86 85 62 43 38 72 78 57 29 27 25 30 32 30 23 21 21 20 20 32 47 46
71 78 78 81 83 82 78 85 89 88 96 95 94 92 91 90 90 90 90 90 90 92 92 91 87 84 89 49 26 42 40 36 33 34 28 26 24 24 29 24 29 27 29 45 48 49 45
77 77 79 80 81 83 85 88 90 88 89 96 95 94 92 91 90 90 90 89 90 92 91 90 86 79 88 36 34 37 32 34 31 27 23 24 25 27 30 25 27 27 21 44 47 48 43
79 74 78 80 81 84 86 88 90 87 86 94 96 95 93 92 91 90 90 89 90 91 91 91 84 90 68 38 52 45 40 30 28 27 21 22 24 28 31 27 27 31 25 39 37 44 44
80 78 78 79 80 82 84 88 89 89 86 84 96 96 95 94 93 91 90 89 91 91 91 90 93 92 74 47 44 37 32 26 26 28 25 17 28 34 33 39 39 36 27 36 33 34 45
79 78 79 78 78 80 82 84 88 90 89 87 87 96 96 94 92 92 92 91 89 91 88 78 70 72 39 27 31 25 32 22 25 31 32 35 38 40 46 43 50 42 32 31 28 26 36
77 80 78 78 78 80 80 79 85 90 90 89 89 91 96 95 90 88 91 83 67 83 83 58 42 39 31 27 30 26 23 24 28 33 40 54 44 48 45 43 38 40 33 30 28 23 34
78 79 80 77 80 79 79 78 81 88 91 90 88 92 96 94 89 90 94 80 59 61 70 58 55 48 38 36 45 34 20 23 31 37 53 43 46 36 36 40 35 38 34 32 29 26 30
80 79 79 78 77 79 80 77 78 83 88 90 89 89 96 93 90 96 92 74 52 56 68 57 54 54 47 43 49 46 22 25 37 49 48 49 33 36 35 36 36 40 41 37 35 33 31
75 82 81 80 78 77 80 80 77 80 83 89 88 88 97 90 91 83 88 70 70 64 73 50 63 53 44 41 32 26 21 22 42 37 49 44 37 35 43 41 35 44 36 34 38 38 33
70 76 87 80 78 78 80 82 78 78 81 87 89 88 98 86 84 90 72 70 72 71 51 28 50 34 37 26 27 25 23 24 30 42 40 39 42 40 40 34 34 40 39 40 39 43 49
70 72 78 86 78 79 78 84 83 80 79 85 90 87 98 96 96 88 79 78 81 78 61 42 38 43 29 25 24 27 24 23 24 40 41 38 43 38 37 37 35 36 41 46 55 52 57
72 69 71 74 87 81 78 80 83 82 81 83 90 87 97 78 80 87 84 85 93 91 36 42 43 32 31 27 25 31 27 30 30 44 47 40 41 40 42 40 39 37 47 62 68 74 63
74 71 71 70 75 84 81 78 82 86 82 82 89 91 97 79 85 85 83 94 95 62 62 46 32 32 28 31 30 34 31 31 31 34 48 47 52 41 40 41 44 50 45 65 55 75 60
76 74 71 71 70 82 80 78 78 84 85 81 90 98 96 89 86 85 97 98 79 62 48 38 32 34 38 34 32 31 34 32 28 29 35 54 49 52 44 44 36 50 53 44 69 82 87
78 76 73 72 73 74 82 79 77 80 85 82 94 95 88 86 82 83 99 73 69 55 50 53 37 36 42 37 36 34 37 30 29 28 33 45 47 54 49 45 40 38 37 52 62 58 66
80 77 74 73 72 71 87 77 78 78 84 83 97 97 83 83 83 94 93 76 62 46 46 60 62 50 38 38 36 40 33 29 28 31 31 48 43 52 52 46 37 44 45 46 49 60 62
80 79 76 74 73 69 83 79 83 77 79 86 96 96 91 83 99 90 84 66 60 50 52 57 60 62 55 40 40 37 36 29 25 39 36 46 55 65 45 42 43 44 45 50 70 51 70
83 80 77 75 74 70 87 81 79 80 79 91 86 83 89 76 92 92 72 64 63 55 59 56 58 61 54 47 42 40 39 36 45 39 46 49 61 68 49 42 52 56 50 49 58 67 65
85 82 77 75 75 74 87 76 73 76 82 84 91 96 98 93 70 68 74 74 73 53 60 57 58 58 59 55 42 41 40 50 50 42 63 49 60 53 60 44 43 50 44 43 51 77 60
87 84 78 76 77 75 88 77 73 79 84 91 95 80 76 94 88 79 64 70 75 66 58 52 57 57 62 66 46 45 59 55 53 61 51 46 52 50 45 38 36 35 38 45 46 48 55
88 84 79 76 78 83 86 79 76 75 87 98 87 97 91 94 69 73 71 68 69 65 58 57 54 60 50 60 51 49 55 55 50 52 48 50 54 48 64 50 45 45 38 37 39 42 47
89 85 79 78 79 81 83 78 74 74 85 98 74 86 92 76 76 81 71 63 63 61 58 50 47 47 54 58 52 45 45 49 44 50 54 53 65 66 59 57 53 64 50 40 38 40 40
88 85 79 78 82 84 86 79 76 72 81 97 70 92 99 91 79 75 60 59 61 59 62 48 41 52 49 54 54 56 60 60 59 64 56 65 68 74 78 74 70 44 44 39 42 46 41
87 83 78 81 83 84 80 76 79 76 80 96 83 92 99 97 79 70 67 65 60 55 60 53 46 42 47 61 66 69 83 71 65 69 72 65 79 84 76 81 58 50 41 42 41 46 48
83 78 80 83 83 80 78 78 79 78 76 91 96 96 97 100 83 64 68 67 73 69 67 57 52 63 73 86 87 77 83 75 77 62 66 69 76 78 88 78 80 60 44 35 42 64 47
88 82 84 81 76 76 75 77 80 79 80 90 97 93 95 98 88 72 77 78 63 68 75 71 75 83 80 98 96 90 81 65 79 74 79 90 94 86 97 85 74 53 41 39 47 51 56
84 84 82 78 78 77 77 77 81 77 81 91 96 95 95 97 91 91 91 80 63 64 76 82 86 92 95 94 94 92 91 81 76 67 71 77 91 92 93 84 71 51 44 43 51 68 64
79 78 77 77 76 77 80 82 81 83 90 87 98 94 93 96 96 84 83 78 84 82 74 93 80 88 86 91 97 98 93 95 82 85 69 64 70 80 72 74 64 73 55 69 66 62 69

GFSGBSN_sfc_rhum_054.txt.gz
RH
77 74 79 79 79 82 79 82 87 91 92 97 96 93 92 91 90 90 91 91 90 89 89 89 89 88 85 52 36 28 70 82 61 39 28 27 32 33 33 29 27 21 21 24 27 53 53
76 79 79 79 80 77 75 81 85 91 90 90 96 96 93 92 91 90 90 91 90 89 91 89 88 86 85 46 24 42 36 47 37 33 32 27 26 27 32 30 30 28 30 46 52 49 49
73 76 78 81 79 81 79 82 85 89 90 89 91 96 95 92 92 91 91 90 90 89 90 88 88 83 87 39 38 38 41 34 34 30 25 25 27 31 33 30 28 32 27 44 50 52 52
78 77 76 77 81 80 82 82 85 86 89 88 87 95 97 95 93 92 91 91 90 90 90 89 84 90 61 36 54 51 47 38 32 30 24 24 28 31 36 31 30 34 26 46 45 49 51
77 79 76 75 77 81 80 81 82 86 87 89 88 87 96 97 95 94 92 90 90 91 90 89 93 90 60 43 39 30 36 31 28 30 30 18 31 37 35 42 41 36 32 36 42 43 51
76 78 79 78 75 78 80 81 68 81 88 90 89 88 89 97 96 95 92 90 89 90 89 82 73 76 40 28 30 29 41 28 26 35 34 38 42 43 49 48 47 50 47 42 32 36 44
72 76 80 76 78 75 76 80 81 79 85 89 89 90 90 93 97 92 90 84 63 84 84 60 53 41 28 32 37 31 30 26 32 33 42 54 46 48 43 44 41 42 43 38 28 26 36
72 74 76 82 74 77 75 78 81 83 82 88 90 90 89 93 97 91 91 83 57 66 75 60 58 51 39 42 47 38 24 25 32 36 52 45 51 39 38 43 39 41 41 40 30 32 34
70 71 73 74 82 74 76 76 80 81 81 84 89 90 88 92 94 92 85 72 60 70 81 53 55 54 48 46 49 44 25 28 35 40 50 52 39 36 40 40 38 41 43 43 38 34 32
73 72 71 72 77 83 77 74 78 81 81 81 86 87 88 96 94 80 83 70 70 75 73 46 61 56 52 49 44 39 24 27 45 36 50 48 41 37 43 40 36 44 38 42 41 42 40
76 74 73 73 74 83 84 74 75 81 82 82 82 88 88 95 80 94 74 69 72 72 53 29 62 41 49 34 27 29 26 25 40 43 42 41 47 43 44 38 36 37 40 45 47 46 51
79 76 75 73 72 76 86 82 78 78 84 81 80 88 89 98 96 88 75 82 79 76 63 34 46 49 49 30 28 30 29 25 30 44 49 40 45 41 37 41 37 37 44 46 55 54 57
81 78 76 75 73 74 80 85 78 77 84 82 81 86 93 83 88 87 78 87 95 88 36 40 48 39 39 32 28 31 34 32 37 49 54 42 43 41 43 44 41 42 48 61 68 73 62
82 80 78 76 74 74 76 88 81 79 84 84 82 88 92 82 77 81 85 97 93 64 59 47 40 39 36 29 30 31 33 38 34 35 51 49 52 41 41 41 41 50 45 65 56 72 55
81 83 80 77 76 73 74 80 85 82 84 85 84 98 97 78 88 74 96 98 80 66 50 46 35 38 36 33 30 35 38 37 32 35 37 54 45 52 48 48 41 54 53 46 69 84 86
80 82 82 79 76 74 74 76 88 82 83 87 95 95 87 77 91 91 99 81 70 55 53 56 46 37 40 39 38 36 40 34 31 32 34 41 45 55 50 48 46 44 42 52 64 60 64
83 80 84 81 78 75 73 75 85 82 81 82 96 96 77 83 94 100 93 79 62 48 52 60 68 63 41 43 40 43 37 32 30 34 35 47 39 49 54 48 40 50 51 51 50 62 61
87 82 85 84 78 77 74 73 77 87 80 85 96 93 85 88 99 88 86 72 63 52 54 59 64 66 59 44 45 42 39 31 30 38 35 48 50 62 48 48 43 44 47 50 70 55 72
90 86 87 87 80 78 75 74 76 87 78 90 96 78 92 78 91 90 71 66 65 59 62 58 63 64 61 54 44 44 43 35 41 37 42 50 55 58 46 45 57 54 54 53 61 68 67
87 88 87 89 82 78 76 74 77 87 77 91 96 94 98 95 67 69 73 72 71 63 60 64 64 60 62 59 53 46 43 46 51 39 64 48 60 47 48 43 45 66 55 56 55 79 64
83 90 89 89 84 78 76 75 77 90 78 91 98 81 80 92 81 83 62 63 74 69 61 61 68 63 65 67 57 51 56 60 55 67 54 45 49 57 47 42 42 41 40 51 50 51 56
80 84 90 88 84 80 76 74 75 88 78 96 98 93 87 92 68 75 77 65 69 66 67 64 67 59 59 66 58 58 54 60 54 58 56 55 54 53 66 53 51 50 46 50 47 49 50
81 88 92 87 86 80 75 74 80 84 82 98 88 93 86 71 73 76 71 67 66 63 62 56 54 54 61 58 52 55 55 52 51 58 61 55 65 67 59 60 55 66 51 45 44 45 45
83 83 91 88 86 80 76 77 83 82 82 97 88 96 97 92 76 70 63 66 65 63 67 56 56 62 52 48 50 56 62 62 61 67 58 66 65 73 79 74 73 49 51 45 47 44 42
83 88 90 89 86 80 76 78 82 77 74 96 90 95 97 97 78 76 67 61 63 60 67 61 55 48 43 48 60 66 83 73 72 74 75 66 76 82 76 78 57 52 44 46 44 41 45
84 91 90 88 84 78 79 83 84 83 80 90 98 98 97 97 90 65 70 66 70 77 77 70 57 58 64 82 81 72 86 75 76 68 69 67 72 73 86 75 69 54 45 40 38 52 48
91 91 88 88 80 80 84 81 79 77 81 84 97 91 95 98 90 84 76 75 61 72 85 72 69 76 72 97 94 92 79 71 81 78 84 90 92 78 96 84 75 57 45 40 49 53 54
90 89 89 81 81 82 81 80 79 78 76 85 96 93 97 97 90 91 91 83 75 68 85 79 86 91 97 93 95 92 92 82 81 71 79 77 85 91 90 86 73 48 42 46 50 72 64
90 83 81 83 84 82 81 79 80 80 79 83 97 96 92 95 94 86 86 85 82 67 70 86 75 88 84 92 96 96 91 97 80 83 68 74 70 78 72 74 62 61 52 60 61 65 66

GFSGBSN_sfc_rhum_057.txt.gz
RH
71 72 76 78 77 75 66 68 82 87 90 92 91 94 97 94 92 91 91 91 90 90 87 87 88 88 74 42 30 25 81 79 54 38 22 21 24 24 24 22 20 17 16 20 20 31 42
75 76 75 77 78 76 74 76 70 84 89 91 90 90 94 96 94 92 91 91 91 90 88 86 87 87 69 40 19 34 44 42 31 25 24 21 22 22 23 25 22 21 21 32 42 43 43
76 77 76 76 75 78 79 75 80 80 84 88 91 89 91 96 96 94 92 92 91 91 89 85 87 79 75 38 33 35 40 29 30 25 21 21 20 22 23 27 22 24 26 31 42 42 43
74 81 77 77 76 77 78 80 79 79 82 86 90 90 88 91 97 96 94 93 92 91 90 88 86 81 58 33 40 42 39 31 30 26 20 20 22 23 26 26 26 25 20 27 33 39 42
72 73 76 81 76 76 75 77 80 78 78 83 89 90 89 89 94 98 97 94 91 90 89 90 84 76 52 38 28 26 31 20 29 29 25 18 23 29 29 31 29 31 25 25 30 37 39
64 68 73 77 84 75 76 75 77 80 77 78 86 89 90 90 90 97 96 90 85 88 87 80 73 68 47 24 26 28 35 27 24 31 32 30 33 32 36 31 32 34 34 30 25 26 37
68 68 70 72 77 79 75 75 72 79 77 73 81 88 89 91 92 96 86 70 50 73 88 64 52 50 25 29 34 30 32 26 27 28 34 42 35 37 34 37 32 32 32 30 25 22 36
75 74 73 70 73 75 82 73 75 76 78 79 72 86 89 90 91 95 84 75 53 65 79 61 62 56 41 38 44 34 26 27 31 30 40 36 42 36 32 36 36 33 32 30 27 26 28
77 76 75 73 69 72 75 84 73 76 79 80 78 81 87 87 95 96 80 70 59 63 86 63 54 53 47 41 44 37 26 27 28 35 42 44 33 34 36 33 35 32 33 34 32 30 24
77 78 77 76 74 73 74 80 86 76 78 81 79 79 83 86 98 84 82 65 67 71 84 49 51 50 50 45 42 34 23 26 35 30 42 37 34 34 35 35 31 34 30 33 34 34 31
77 77 78 78 76 75 72 74 82 83 76 81 82 79 84 91 89 85 70 74 75 73 55 30 63 40 49 39 30 39 25 25 37 38 38 34 39 39 39 35 33 33 34 34 35 37 37
79 79 79 79 78 76 75 74 82 86 77 78 83 81 84 93 96 81 76 75 78 85 77 33 52 56 55 44 26 29 28 26 32 39 38 32 33 32 30 33 33 34 39 39 42 42 45
81 80 80 80 79 79 77 76 77 82 83 78 84 81 86 85 86 84 78 77 93 90 44 36 53 44 46 39 28 32 35 34 34 44 46 34 34 31 35 33 34 33 36 46 56 56 48
82 82 81 80 81 81 78 76 75 81 83 79 84 85 82 81 82 81 82 96 94 61 62 42 41 46 39 30 30 32 35 34 30 31 40 37 38 35 36 32 34 37 37 53 45 50 41
84 84 82 81 81 83 81 77 76 80 85 78 85 95 94 89 88 86 96 98 69 61 49 45 33 44 43 29 30 33 39 32 30 34 34 48 38 37 39 37 31 42 42 38 59 69 65
85 84 84 82 82 82 81 78 76 79 86 79 91 95 87 85 87 98 98 73 66 52 51 53 52 39 48 36 36 35 41 34 32 32 33 41 40 45 40 38 39 36 36 46 51 55 55
82 85 85 83 82 83 82 80 77 79 84 80 93 95 73 82 93 97 92 68 58 52 50 55 66 64 39 41 37 40 37 30 28 31 31 38 37 40 42 40 36 42 42 45 40 47 48
83 82 86 85 84 85 84 80 77 80 85 86 93 96 79 78 98 92 85 64 60 51 52 54 59 63 58 44 46 42 36 31 30 34 34 41 48 56 39 38 35 36 40 42 57 49 59
81 80 82 88 86 86 86 80 77 79 85 93 98 93 90 74 91 84 67 62 55 59 56 58 59 58 56 57 45 45 43 38 42 37 43 47 48 48 38 37 43 42 42 44 51 57 56
82 80 81 86 88 89 89 83 77 78 83 88 98 99 99 93 62 67 73 67 71 53 59 57 59 56 57 55 54 46 44 44 46 37 64 45 50 44 40 36 38 53 50 46 46 61 53
81 82 80 82 85 90 90 85 77 78 82 94 99 92 77 96 81 75 63 60 61 67 54 60 64 60 60 57 59 52 51 53 52 65 50 46 47 48 37 33 38 38 42 49 44 44 51
83 81 81 79 81 91 90 86 78 79 82 97 98 95 87 78 69 77 71 70 61 59 62 61 64 64 58 62 58 60 52 52 53 54 53 49 49 55 48 43 38 39 35 43 44 42 41
82 83 81 84 88 91 89 86 81 78 87 97 96 90 69 69 77 77 73 59 64 57 60 53 55 61 64 58 59 52 53 56 54 52 58 56 63 62 54 48 46 65 50 42 40 39 40
81 83 82 83 86 92 88 86 83 76 82 94 84 94 86 84 78 72 60 59 59 61 69 56 59 60 54 49 51 57 58 56 63 62 55 64 63 67 73 69 75 41 40 37 40 39 35
81 86 84 86 90 91 88 85 81 79 78 90 82 95 90 93 72 66 61 62 64 62 65 61 56 55 55 54 61 60 74 74 69 65 64 57 69 75 79 65 50 37 37 41 42 31 37
89 86 82 83 91 89 87 85 80 75 83 86 94 98 98 84 84 62 60 57 72 74 78 71 62 62 59 82 74 69 75 70 69 66 61 65 67 75 74 71 71 51 36 36 31 45 36
83 78 86 85 90 89 86 82 78 79 89 82 99 95 96 85 92 73 71 68 56 77 83 78 64 71 65 89 95 88 73 64 77 79 84 80 82 73 79 80 63 47 40 38 48 42 44
84 87 90 91 90 87 82 80 79 81 88 83 98 96 97 94 90 89 91 78 65 63 82 79 75 82 95 90 90 86 93 79 72 67 75 71 78 85 80 87 67 48 37 46 46 48 49
94 92 91 90 88 88 83 80 80 80 87 84 98 93 95 97 96 86 84 83 74 51 66 81 70 82 78 88 94 90 99 98 77 64 67 76 65 72 62 63 54 44 45 44 47 48 56

GFSGBSN_sfc_rhum_060.txt.gz
RH
75 71 73 72 75 76 71 77 74 73 80 84 88 89 88 87 95 95 93 91 91 90 89 85 84 89 51 29 18 21 78 78 35 24 14 12 12 14 16 14 16 16 13 14 15 21 19
73 78 79 73 72 73 69 76 77 78 76 81 86 88 90 89 93 96 95 93 92 91 90 86 83 90 46 30 14 27 31 28 19 18 15 12 15 16 17 18 18 16 15 16 23 24 28
67 72 76 84 78 74 73 75 77 77 78 79 84 88 90 88 87 94 96 94 93 92 91 87 83 59 52 30 17 21 26 21 17 15 14 13 14 17 19 18 18 18 19 17 25 26 29
64 66 69 75 81 82 77 75 74 76 78 77 80 88 90 90 88 89 96 96 94 93 91 88 86 58 42 20 19 23 22 22 20 17 16 14 15 19 20 19 18 18 18 17 24 26 31
70 69 66 71 74 81 84 77 75 73 77 78 77 82 88 90 90 90 95 97 95 90 86 87 69 58 34 31 26 17 18 21 20 20 20 15 18 21 22 20 17 16 17 16 26 26 27
71 69 71 71 72 74 78 86 76 76 75 77 77 79 84 88 91 92 96 96 84 84 74 67 56 59 32 18 18 23 20 15 20 23 23 23 21 22 20 19 19 16 19 16 16 22 27
73 76 73 73 72 72 73 76 85 78 76 75 77 76 80 87 90 91 85 65 56 57 67 39 37 31 21 20 25 23 22 20 16 22 24 26 24 24 19 19 25 20 20 18 16 18 26
74 74 76 77 75 73 67 70 74 86 78 76 76 76 78 86 88 93 88 68 52 56 57 40 41 36 31 28 32 26 20 20 22 26 24 28 27 19 21 24 26 23 19 18 20 19 22
75 75 75 76 77 76 73 70 73 81 82 78 77 76 76 83 88 96 82 60 44 48 58 44 38 34 28 31 29 22 21 16 21 24 25 24 22 24 25 25 28 24 23 22 21 21 19
79 78 77 76 77 78 76 74 74 77 87 80 79 78 77 83 82 65 68 52 49 57 59 34 43 36 31 26 33 17 19 16 20 24 22 22 19 25 24 25 22 25 19 20 22 21 22
80 79 79 79 78 77 78 76 75 75 82 85 81 81 80 86 83 73 56 56 59 65 34 24 42 29 31 23 20 21 17 19 20 22 24 23 25 26 25 21 21 22 23 24 23 23 27
82 80 79 79 79 79 79 78 77 76 76 83 82 81 82 69 68 61 54 62 62 64 43 26 44 48 43 31 24 21 22 18 14 21 23 18 22 22 20 23 23 23 26 28 28 27 33
82 82 81 80 80 80 80 80 78 76 76 80 84 82 83 48 61 54 66 69 72 54 24 24 47 46 34 30 27 23 24 27 23 31 30 23 22 21 24 26 27 25 26 36 45 42 36
82 82 82 82 81 81 81 81 80 78 77 81 82 81 82 57 48 66 75 96 60 22 29 30 36 40 39 24 24 24 25 25 18 18 20 26 30 22 23 23 24 26 25 34 39 39 31
84 84 83 83 82 82 82 82 81 79 78 79 85 93 90 78 57 85 94 90 35 30 27 28 31 46 39 24 22 25 26 22 20 19 23 26 22 22 24 24 22 31 32 25 38 52 47
84 86 86 84 84 83 82 82 83 81 79 82 86 95 86 75 68 96 94 59 33 28 31 42 31 34 48 31 26 25 27 21 21 18 16 24 27 26 31 27 29 29 24 35 33 43 39
87 86 86 85 85 84 83 82 84 82 78 81 94 97 58 73 84 99 89 53 37 30 37 45 38 44 31 31 25 27 27 22 19 22 18 20 24 39 34 32 25 31 31 30 28 31 39
80 81 85 87 85 86 86 83 85 82 80 87 93 99 73 71 98 93 78 46 42 33 40 44 47 49 47 31 27 22 24 20 18 19 26 22 25 33 27 28 26 23 26 28 37 35 39
83 82 82 90 87 87 90 86 86 82 82 89 97 96 85 66 92 91 60 51 36 38 35 45 48 45 47 46 34 26 24 21 23 20 24 25 29 35 31 31 31 27 26 24 28 34 34
80 80 83 83 83 82 83 88 89 85 81 85 98 100 99 95 48 62 63 51 49 37 37 40 44 44 47 44 41 34 31 33 31 23 52 35 25 29 33 24 19 28 26 24 27 40 31
80 80 80 84 83 82 85 89 92 87 84 89 98 85 82 95 78 51 50 45 48 48 40 43 46 47 43 47 46 45 34 42 34 53 30 29 29 27 21 17 16 18 18 20 23 24 28
86 85 81 82 82 82 82 88 92 88 86 94 99 58 68 54 61 59 56 55 42 39 40 46 46 44 47 51 46 50 39 40 37 41 33 33 31 30 31 21 22 23 19 18 21 20 25
85 85 84 86 83 82 83 90 92 88 88 96 94 43 49 53 60 63 56 54 43 39 40 35 43 50 57 46 42 40 39 40 38 42 42 38 36 41 38 31 32 56 33 22 22 25 26
83 85 84 85 83 82 84 84 91 88 87 76 84 50 63 55 63 57 47 43 41 39 46 42 39 49 42 38 36 38 41 39 39 43 42 47 40 44 48 68 82 26 26 20 24 21 20
84 83 83 84 83 82 83 84 89 87 86 79 74 69 52 83 46 51 50 44 39 40 44 42 48 39 43 42 48 43 50 50 49 42 48 44 46 61 81 50 30 30 30 31 31 25 19
92 86 82 82 84 82 81 87 90 87 84 86 78 69 62 63 54 37 60 44 46 50 53 46 41 48 51 65 58 44 39 33 49 58 50 48 50 54 62 62 82 30 21 22 24 37 18
90 88 82 83 85 83 83 89 87 87 82 86 82 73 71 60 42 44 60 56 39 49 59 53 58 58 50 74 92 70 49 36 49 64 88 70 69 77 62 70 41 28 26 25 40 37 22
84 83 84 88 83 84 91 87 88 86 84 83 88 75 74 60 54 65 47 51 42 53 66 54 61 61 73 79 70 65 84 47 48 38 58 59 70 84 63 88 78 32 28 32 27 32 26
85 88 85 85 86 90 88 88 88 86 82 84 94 78 71 66 82 77 78 61 38 37 47 57 43 49 53 60 68 58 96 92 46 56 46 63 50 55 50 45 39 32 25 25 29 25 33

GFSGBSN_sfc_rhum_063.txt.gz
RH
68 72 74 77 76 74 69 72 76 76 76 76 80 82 79 81 84 91 95 96 94 92 91 89 86 86 49 27 19 24 72 70 24 20 17 12 10 10 12 10 10 12 10 9 9 10 14
67 69 70 75 75 80 69 73 73 77 76 72 78 82 85 84 86 88 92 96 95 93 92 90 86 90 39 36 11 14 18 30 18 18 14 10 9 9 14 12 13 11 12 10 10 13 15
66 68 70 73 75 76 80 76 75 75 74 77 74 79 85 87 88 88 87 92 97 95 93 90 86 52 46 34 13 12 17 17 16 15 12 9 10 14 13 16 12 13 14 12 11 13 13
71 71 68 70 72 75 78 83 81 74 74 75 76 76 81 87 88 89 89 90 96 96 94 88 85 48 48 18 13 13 14 18 16 13 13 10 12 15 16 13 14 13 13 15 16 13 15
75 74 73 73 72 74 76 78 83 82 74 75 77 76 76 82 88 89 91 91 94 94 85 83 63 52 36 30 20 14 13 15 18 16 15 12 15 17 15 17 15 13 14 20 24 13 17
67 72 76 76 74 74 74 75 77 84 82 75 76 76 76 79 86 89 91 91 77 84 72 50 43 48 33 18 14 12 12 13 18 19 20 20 18 19 17 16 18 15 12 14 12 20 15
67 68 72 74 78 75 74 74 75 78 84 81 76 76 77 76 84 88 76 49 52 63 54 34 24 22 17 14 16 16 12 16 16 20 23 20 20 21 17 16 14 17 14 13 13 13 17
74 74 74 73 73 76 75 74 74 75 78 83 80 77 77 76 81 87 76 51 34 47 41 29 32 25 22 19 26 16 12 19 21 23 19 21 25 16 15 16 19 18 17 14 14 14 16
78 78 77 76 74 75 75 77 76 76 76 80 84 78 77 76 80 72 60 48 32 40 49 26 20 24 20 18 25 19 16 16 18 20 19 23 17 14 18 17 20 19 19 23 21 22 14
80 80 80 80 79 78 76 77 78 76 76 79 86 81 78 78 72 40 49 41 37 48 46 17 31 25 19 16 24 15 14 14 16 19 18 19 14 18 18 19 18 23 15 16 17 18 22
82 82 81 81 81 80 80 78 77 78 77 78 86 84 82 85 59 52 37 34 44 61 29 14 24 21 20 22 11 15 12 13 17 18 18 20 17 20 21 19 17 20 19 18 18 21 23
82 83 82 82 82 81 81 81 80 80 78 78 84 85 83 77 59 55 56 45 57 52 32 19 28 32 32 26 16 12 15 15 12 15 16 16 13 15 16 15 16 16 20 20 20 22 36
84 83 83 83 83 82 82 81 81 82 80 79 82 84 80 52 61 43 64 82 51 39 12 14 31 34 30 30 25 17 18 23 20 24 25 18 18 16 16 20 19 19 23 33 43 53 39
84 84 84 84 83 83 82 82 81 82 80 79 81 85 79 53 46 62 83 93 46 18 17 20 25 34 34 23 26 21 23 23 19 14 19 23 27 18 17 18 22 23 22 36 54 48 53
84 85 85 85 84 83 84 83 82 82 82 80 82 65 88 67 58 74 98 88 39 20 10 12 23 36 36 24 22 22 23 20 18 15 21 22 20 14 15 15 16 24 27 22 33 30 38
83 85 85 85 84 84 84 84 83 83 83 81 85 63 81 64 63 87 99 76 28 13 9 14 20 25 34 26 27 25 23 17 18 14 14 18 24 15 16 17 17 25 19 31 27 46 43
85 84 84 84 84 86 85 85 84 84 83 81 89 93 54 63 82 95 96 62 41 14 14 18 24 16 24 31 24 27 22 17 15 14 14 16 20 24 24 25 20 24 28 25 30 39 41
85 88 88 86 88 86 87 86 85 86 85 89 91 98 60 80 99 76 81 50 43 26 16 23 34 19 28 29 29 29 24 19 14 15 20 17 23 31 26 15 14 18 22 23 36 31 29
83 83 82 82 82 84 86 87 86 86 88 96 98 94 79 79 94 71 46 49 45 34 21 26 34 33 32 35 33 31 28 22 17 17 21 20 25 32 26 25 20 23 21 21 24 25 34
82 80 80 81 82 81 82 87 86 88 88 94 98 99 98 96 51 53 48 43 45 38 28 22 27 32 43 45 35 31 30 26 26 20 43 31 23 26 31 24 20 25 20 19 23 42 32
77 77 80 81 82 82 82 84 88 89 89 94 98 90 85 96 86 52 42 36 39 37 31 24 30 30 41 45 36 39 29 33 31 43 28 25 28 24 19 16 15 16 18 18 20 22 30
81 81 83 82 82 82 83 89 93 91 89 97 98 56 64 55 68 56 49 39 37 28 29 38 34 30 32 41 39 42 34 33 30 26 29 24 31 27 25 18 16 18 15 14 13 15 15
84 84 83 82 82 82 82 82 86 92 90 97 81 40 55 63 64 59 51 39 30 30 29 24 26 32 36 40 41 40 38 37 37 37 30 30 35 33 40 21 22 38 22 16 16 15 16
87 86 84 84 84 84 81 83 81 90 88 93 68 40 82 64 62 50 42 35 32 28 31 26 27 35 30 34 36 35 36 36 34 31 35 32 33 38 54 66 69 26 16 16 18 16 14
85 86 88 86 87 88 82 83 82 84 87 92 55 54 66 89 43 42 42 40 30 30 31 29 33 25 34 38 46 44 57 52 41 33 33 39 38 51 66 51 30 20 23 22 21 19 14
90 91 85 86 84 89 83 83 83 88 90 89 62 50 58 67 48 33 40 37 40 37 40 32 32 38 37 46 51 45 47 36 42 43 29 33 44 56 57 58 66 31 19 16 17 34 16
92 90 87 84 85 85 86 83 81 85 87 90 64 67 66 59 38 43 46 41 33 36 43 37 54 61 47 69 85 52 40 18 35 55 77 66 68 75 61 61 38 20 17 16 41 37 16
92 92 86 85 86 87 85 84 88 89 88 92 69 62 68 59 45 43 45 40 36 35 55 42 61 56 65 74 64 48 67 33 30 26 54 64 68 85 66 77 76 27 25 32 29 22 20
91 88 83 84 85 86 84 84 86 86 87 87 86 74 61 75 71 49 53 37 49 26 35 46 54 44 41 46 54 47 78 80 38 54 31 65 42 55 45 44 31 30 28 26 21 24 23

GFSGBSN_sfc_rhum_066.txt.gz
RH
66 67 69 70 72 74 79 76 75 76 78 77 71 77 76 76 75 86 89 90 93 95 94 92 91 90 64 35 26 25 69 66 24 18 17 16 14 12 12 10 10 10 10 8 8 8 9
67 68 68 68 67 68 71 76 83 76 75 77 76 73 77 79 79 85 88 89 89 94 95 93 91 94 59 50 16 11 15 26 18 17 16 16 12 9 10 11 13 10 11 10 9 9 10
68 72 73 74 72 71 69 77 81 84 77 74 74 75 75 77 83 84 87 89 89 90 95 94 91 66 60 43 18 13 14 15 17 16 17 13 10 10 14 15 12 12 14 11 10 10 12
70 75 74 75 74 73 73 76 78 80 82 79 72 70 76 75 78 85 86 89 90 89 93 94 88 64 60 19 15 16 16 14 13 14 15 12 9 13 16 14 15 14 15 16 11 12 14
73 73 73 77 78 76 76 77 77 79 80 83 79 75 75 76 76 83 86 88 89 89 90 88 72 63 44 24 23 17 12 14 14 16 14 12 13 16 16 19 20 15 17 14 13 14 15
67 71 72 74 75 78 78 78 78 78 80 83 83 79 75 76 76 81 87 86 72 82 72 54 52 51 34 21 13 14 13 13 14 20 19 18 18 21 19 20 26 19 18 16 14 16 16
66 67 71 72 74 75 75 79 77 78 79 80 83 83 79 75 78 77 72 48 52 78 66 47 34 33 14 15 11 13 12 15 14 21 27 21 23 24 20 20 18 16 16 17 16 15 18
76 76 73 72 74 74 70 72 76 79 78 77 81 84 84 78 77 79 65 60 25 40 51 38 41 35 24 18 23 16 12 17 20 26 22 23 28 18 16 15 16 18 18 16 14 15 15
79 80 80 77 75 76 74 75 75 77 79 79 80 83 85 80 78 72 59 50 29 34 49 28 20 17 22 21 23 20 14 14 19 23 23 28 21 17 16 17 18 18 17 21 24 17 15
81 82 82 82 81 81 80 79 78 77 80 80 80 84 86 77 74 50 48 33 34 44 56 17 14 18 14 17 20 16 14 14 17 22 21 21 16 17 17 19 17 21 14 18 17 19 22
82 82 82 82 82 82 82 82 81 78 78 80 81 85 86 83 50 54 40 43 36 55 43 8 11 16 16 20 13 16 14 16 19 19 18 21 18 18 21 17 16 20 20 22 18 19 22
83 83 83 83 83 83 83 83 83 82 80 80 82 85 87 82 66 51 45 61 62 67 34 14 23 27 24 20 17 11 18 17 15 18 17 17 13 14 16 15 16 15 18 21 22 23 35
84 84 83 83 83 84 84 84 84 83 82 82 81 85 82 59 76 45 60 89 76 48 10 10 25 26 25 26 22 16 20 25 23 27 28 19 17 14 13 18 16 18 23 38 48 48 45
84 83 83 83 84 84 84 85 84 84 84 83 82 84 72 55 53 61 85 98 67 24 20 14 12 24 30 25 26 24 19 22 21 17 23 27 30 17 15 18 20 22 23 41 60 84 63
84 84 83 84 84 84 85 85 85 85 85 84 83 83 72 60 60 79 94 98 62 29 14 16 18 27 34 25 23 26 24 21 19 19 25 27 24 14 16 16 17 24 31 22 59 60 74
83 83 84 84 84 84 85 86 86 85 85 85 92 84 76 58 66 89 99 84 42 30 20 14 18 23 32 28 27 25 25 21 20 18 19 22 31 16 16 15 16 18 20 33 35 74 49
83 84 84 84 84 84 85 86 86 86 85 85 95 98 62 57 79 98 98 72 48 25 22 19 18 17 15 23 24 24 24 22 22 20 20 20 26 25 18 20 20 21 28 32 25 30 53
84 84 84 84 84 84 85 86 86 88 87 91 96 99 65 66 99 90 86 63 46 25 26 28 24 17 19 20 25 24 24 23 17 21 24 22 28 36 23 16 16 17 23 28 44 40 42
84 84 85 88 88 86 86 86 86 91 89 96 98 97 75 71 96 94 66 50 46 35 27 27 29 21 25 31 29 30 25 25 30 24 30 26 29 36 36 24 20 19 19 21 25 30 39
86 86 89 84 82 84 87 90 89 92 90 95 99 100 97 94 60 67 65 55 52 38 30 26 27 25 30 38 30 37 30 29 41 30 43 40 27 29 41 35 24 25 20 24 28 53 42
82 82 84 85 87 86 85 85 90 92 92 96 99 91 78 96 91 67 52 41 46 41 31 30 34 31 35 37 36 34 31 29 33 43 37 34 34 28 21 20 19 21 20 19 19 25 39
81 81 81 80 80 79 80 84 86 91 93 98 100 60 60 47 74 68 63 52 39 33 31 35 38 32 44 42 33 28 27 34 42 32 36 36 37 32 34 22 20 22 18 18 17 18 18
83 84 84 83 80 78 79 82 86 87 94 98 97 52 60 64 72 83 69 57 41 33 29 24 27 34 47 50 66 44 45 40 40 43 40 40 44 40 46 26 25 39 25 18 17 17 17
86 86 86 86 86 81 80 83 86 86 93 96 92 50 72 66 80 65 55 48 40 34 35 24 25 36 33 35 55 55 39 39 39 42 41 51 43 43 64 69 59 28 18 16 20 17 14
89 88 87 86 86 86 82 84 85 86 87 97 76 61 72 86 48 56 49 48 41 35 34 30 26 21 53 68 79 56 56 54 46 36 39 41 58 72 68 59 36 25 22 22 24 23 17
87 85 84 84 86 86 84 83 86 84 84 96 82 58 61 76 59 38 50 43 48 45 39 35 25 38 53 65 92 64 69 48 42 52 39 38 54 67 75 63 69 40 22 19 21 38 19
86 85 86 91 90 86 86 83 82 82 83 94 93 73 75 78 57 57 52 52 38 40 43 37 43 55 50 83 99 71 58 33 51 72 86 75 71 70 68 72 52 28 24 22 41 45 26
90 92 90 87 90 86 86 84 83 82 88 90 94 80 84 83 67 62 50 49 38 39 51 42 52 79 67 79 81 62 76 44 37 31 62 71 73 80 75 76 72 30 26 33 35 37 28
93 91 92 89 86 90 88 84 83 83 88 82 95 84 86 86 79 66 73 59 38 29 38 44 52 70 45 56 58 55 91 89 44 50 34 71 53 60 51 57 42 42 38 38 36 39 38

GFSGBSN_sfc_rhum_069.txt.gz
RH
64 67 68 68 69 69 69 72 79 87 80 77 76 67 67 72 75 83 85 89 89 89 89 93 93 94 88 69 50 34 72 65 37 24 21 20 24 24 22 17 15 16 15 12 12 11 13
72 71 73 71 70 66 65 69 77 81 83 82 76 75 74 63 70 80 84 85 88 89 89 90 93 94 89 88 32 22 37 42 25 23 22 22 23 18 17 16 18 16 16 16 14 14 13
66 73 77 77 77 75 71 74 77 80 80 82 81 77 62 68 66 69 79 84 85 87 88 87 92 85 80 71 38 30 24 23 31 28 24 21 20 20 18 19 19 19 23 19 17 15 14
68 69 71 74 76 79 78 77 76 77 80 80 81 80 78 61 61 64 77 84 84 84 85 88 92 85 79 38 36 38 34 29 21 22 22 20 20 20 21 22 22 25 24 29 18 16 14
72 70 70 74 76 76 78 81 79 78 78 80 82 82 82 79 63 61 69 80 81 80 82 85 94 94 83 38 40 31 25 23 21 18 22 16 19 24 24 30 35 32 34 27 20 14 18
66 68 72 73 74 75 76 77 80 81 80 81 82 84 84 81 79 74 70 79 72 75 70 67 66 83 58 34 23 20 23 21 21 23 27 26 29 31 33 38 43 36 29 23 24 23 22
65 66 68 72 75 75 74 74 76 78 82 82 81 83 85 84 80 79 82 75 74 93 79 75 66 54 26 23 21 18 19 20 21 26 38 32 38 36 33 29 26 25 25 25 21 18 24
70 68 70 73 76 74 73 74 75 76 77 82 82 82 85 84 83 78 88 85 64 54 72 66 59 52 37 32 35 25 16 24 28 29 33 36 38 27 23 23 24 24 26 27 22 20 25
75 76 74 74 75 76 75 76 78 79 79 78 83 82 85 85 83 89 87 73 49 53 79 51 40 46 49 37 44 34 22 22 25 28 33 39 30 23 24 24 24 24 27 28 28 25 24
77 79 80 78 78 80 81 80 80 79 80 81 81 83 85 85 84 76 78 54 51 52 88 47 31 28 24 20 38 25 21 22 23 26 29 33 25 25 26 26 22 27 21 21 28 31 38
79 81 82 82 82 82 84 83 83 83 82 81 82 84 84 83 86 77 55 52 57 67 94 18 16 16 17 22 22 23 21 24 25 23 28 32 28 28 29 24 21 25 25 28 30 35 37
80 81 81 83 83 84 84 84 85 85 84 83 82 83 86 92 95 78 63 67 88 97 83 23 29 31 29 22 23 20 22 22 24 22 24 24 19 20 22 21 20 19 28 31 34 37 52
82 82 83 84 85 84 84 84 86 86 86 85 84 85 85 67 82 72 67 89 99 90 20 14 37 32 33 29 25 25 27 29 36 35 33 24 23 18 18 23 23 24 33 56 68 72 65
82 83 85 87 87 86 85 84 85 87 87 86 85 87 83 72 66 70 89 96 95 49 38 18 24 32 37 31 29 28 27 32 31 30 31 35 40 22 19 21 26 30 34 63 66 84 75
85 85 84 84 85 85 85 84 85 87 88 87 87 94 92 77 70 87 99 99 70 49 25 30 22 29 39 30 34 31 33 31 30 29 33 35 33 20 17 19 21 34 39 35 73 79 93
85 84 83 83 84 84 85 85 85 87 88 89 98 97 89 68 71 92 99 92 64 40 30 25 36 30 46 40 38 38 41 32 30 25 24 35 38 22 20 20 22 26 27 48 66 97 97
84 85 85 84 84 84 86 86 86 86 88 89 99 99 80 67 88 97 97 77 66 42 37 36 37 39 34 41 38 38 36 30 26 23 21 24 34 38 27 27 26 30 30 40 48 64 76
86 87 86 84 84 84 85 86 87 87 88 96 97 100 74 67 99 88 86 66 60 44 38 41 38 36 41 40 40 34 36 31 24 28 27 26 45 51 37 24 19 22 30 42 70 56 64
85 85 84 84 84 84 85 84 86 86 88 97 98 98 83 71 97 91 71 64 60 54 50 42 40 33 31 39 48 48 36 32 31 30 39 38 57 67 44 30 21 25 28 27 41 55 63
85 86 87 86 86 86 85 86 85 86 88 97 99 99 99 94 73 71 68 68 71 54 56 44 42 37 38 43 38 53 56 44 41 33 53 44 43 48 53 50 34 38 29 25 38 66 58
83 84 86 86 86 86 88 89 88 90 90 98 99 98 85 97 95 78 63 57 64 66 50 46 46 48 46 51 60 57 67 66 38 58 44 45 51 44 39 34 32 32 30 25 29 39 57
80 80 80 82 83 83 84 85 85 86 90 98 100 97 78 73 76 84 75 79 66 57 47 54 55 47 43 50 54 77 80 64 68 34 42 45 53 44 46 34 28 36 30 25 24 26 30
82 82 81 82 82 82 84 83 86 87 92 98 99 75 65 71 77 95 83 73 70 52 46 36 42 44 46 46 66 75 78 70 67 54 48 48 53 56 60 42 38 60 38 38 30 24 26
84 84 84 85 84 83 82 83 83 86 91 99 96 76 91 83 93 80 67 64 63 54 55 41 34 42 34 50 76 76 70 73 58 63 52 61 51 65 72 66 65 41 27 26 29 25 23
88 89 88 86 86 85 84 83 81 81 86 97 97 79 91 99 62 76 66 63 58 52 55 43 36 27 37 69 74 81 88 87 64 54 59 52 70 82 70 63 50 39 30 32 33 33 24
87 87 89 89 88 85 82 84 83 80 82 94 97 93 88 88 69 50 68 58 67 63 61 54 40 34 48 77 91 94 97 74 64 60 50 49 60 84 86 70 64 52 36 28 28 50 29
91 88 88 88 89 89 88 85 85 80 82 92 97 92 96 87 71 52 65 64 52 58 61 56 53 60 65 89 84 98 94 64 66 72 76 82 80 84 92 91 70 40 31 33 52 56 33
90 91 90 89 85 87 87 88 86 83 82 92 96 90 97 89 79 72 58 60 53 54 66 60 62 69 92 90 86 96 92 72 64 65 77 80 85 90 89 88 82 37 35 42 46 39 36
91 95 93 90 84 84 84 84 85 86 84 89 97 89 94 97 90 80 79 76 76 75 61 57 55 75 90 91 91 84 90 85 61 73 60 84 76 79 72 74 53 47 50 42 42 42 44